Location: Paderno d�Adda
(45.6667°N, 9.4333°E)
Time: 16:47:32
(UTC+00:00)

CENTAUR R/B - Pass Details

Date: 19 September 2020
Orbit: 755 x 1433 km, 63.4° (Epoch: 02 October)

Event Time Altitude Azimuth Distance (km) Brightness Sun altitude
Rises 20:26:41 0° 319° (NW) 4,185 6.9 -30.3°
Reaches altitude 10° 20:29:23 10° 316° (NW) 3,295 6.1 -30.6°
Maximum altitude 20:37:23 59° 240° (WSW) 1,574 3.5 -31.7°
Enters shadow 20:39:09 51° 198° (SSW) 1,720 3.5 -31.9°
